Temperature
19 20 19 19 19 19 19 19 19 19 19 19 19 19 19 19 19 19 19 18 18 18 18 18 18 18 18 18 18 18 18 18 18 18 18 18 18 17 17 17 17 17 17
20 20 20 19 19 19 19 19 19 19 19 19 19 18 18 18 18 18 18 18 18 18 18 18 18 18 18 18 18 18 18 18 18 18 18 18 17 17 17 16 17 17 17
20 20 20 19 19 19 19 19 19 18 19 19 18 18 18 18 18 18 18 18 18 18 18 18 18 18 18 18 18 18 18 18 18 17 17 17 17 17 17 17 17 17 17
20 19 20 19 19 19 19 19 18 18 18 18 18 18 18 18 18 18 18 18 18 18 18 18 18 18 18 18 18 18 18 18 17 17 17 17 17 17 17 17 17 17 17
20 20 20 19 19 19 19 18 18 18 18 18 18 18 18 18 18 18 18 18 18 18 18 18 18 18 18 18 18 18 18 17 17 17 17 17 17 17 17 17 17 17 17
20 20 20 20 19 19 19 18 18 18 18 18 18 18 18 18 18 18 18 18 18 18 18 18 18 18 18 18 18 18 17 17 17 17 17 17 17 17 17 17 17 17 17
20 20 20 20 19 19 19 18 18 18 18 18 18 18 18 18 18 18 18 18 18 18 18 18 18 18 18 18 18 17 17 17 17 17 17 17 17 17 17 17 17 17 17
20 20 20 20 19 19 19 19 19 18 18 18 18 18 18 18 18 18 18 18 18 18 18 18 18 18 18 18 18 17 17 17 17 17 17 17 17 17 17 17 17 17 17
21 20 20 20 20 19 19 19 19 18 18 18 18 18 18 18 18 18 18 18 18 18 18 18 18 18 18 18 18 18 17 17 17 17 17 17 17 17 17 17 17 17 17
21 20 20 19 19 19 19 19 19 19 18 18 18 18 18 18 18 18 18 18 18 18 18 18 18 18 18 18 18 18 18 17 17 17 17 18 18 18 17 17 17 17 17
21 21 20 20 19 19 19 19 19 19 18 18 18 18 18 18 18 18 18 18 18 18 18 18 18 18 18 18 18 18 18 18 17 17 17 18 18 18 17 17 17 17 17
21 21 20 20 20 19 19 19 19 18 18 18 18 18 18 18 18 18 18 18 18 18 18 18 18 18 18 18 18 18 18 18 18 18 18 18 18 18 18 17 17 17 17
22 21 21 20 20 20 19 19 18 18 18 18 18 18 18 18 18 18 18 18 18 18 17 17 18 17 17 17 18 18 18 18 18 18 18 18 18 18 18 17 17 17 17
22 21 21 20 20 20 19 19 19 19 19 18 18 18 18 18 18 18 18 18 18 18 18 17 18 17 17 17 18 18 18 18 18 18 18 18 18 18 18 17 17 17 17
22 21 21 20 20 20 19 19 19 19 19 19 19 18 18 18 18 18 18 18 18 18 18 18 17 17 17 17 18 18 18 18 18 18 18 18 18 18 18 17 17 17 17
21 21 20 20 20 20 20 19 19 19 19 19 19 18 18 18 18 18 18 18 18 18 18 18 18 18 18 18 18 18 18 18 18 18 18 18 18 18 18 18 18 17 17
21 21 20 20 20 19 19 19 19 19 19 19 19 19 18 18 18 18 18 18 18 18 18 18 18 18 18 18 18 18 18 18 18 18 18 18 18 18 18 18 18 18 17
21 21 20 20 20 20 19 19 19 19 19 19 19 19 18 18 18 18 18 18 18 18 18 18 18 18 18 18 18 18 18 18 18 18 18 17 17 17 18 18 18 18 17
21 21 21 20 20 20 19 19 19 19 19 19 19 19 18 18 18 18 18 18 18 18 18 18 18 18 18 18 18 18 18 18 18 18 18 17 17 17 17 18 17 18 18
21 21 21 20 20 20 19 19 19 19 19 19 19 19 19 18 18 18 18 18 18 18 18 18 18 18 18 18 18 18 18 18 18 18 18 18 18 17 17 17 17 18 18
21 21 21 20 20 20 19 19 19 19 19 19 19 19 19 19 18 18 18 18 18 18 18 18 18 18 18 18 18 18 18 18 18 18 18 18 18 18 17 17 17 17 17
22 21 21 21 21 20 20 20 19 19 19 19 19 19 19 19 18 18 18 18 18 18 18 18 18 18 18 18 18 18 18 18 18 18 18 18 18 18 18 17 17 17 17
22 21 21 21 21 21 20 20 19 19 19 19 19 19 19 18 18 18 18 18 18 18 18 18 18 18 18 18 18 18 18 18 18 19 19 18 18 18 18 18 18 17 17
23 22 21 21 21 21 20 20 19 19 19 19 19 19 19 19 18 18 18 18 18 18 18 18 18 18 18 18 18 18 18 18 18 18 18 18 18 18 18 18 18 18 17
23 22 22 21 21 21 20 20 19 19 19 19 19 19 19 19 19 19 18 18 18 18 18 18 18 18 18 18 18 18 18 18 18 18 18 18 18 18 18 18 18 18 18
24 23 22 22 22 21 21 20 20 20 19 19 19 19 19 19 19 19 18 18 18 18 18 18 18 18 18 18 18 18 18 18 18 18 18 18 18 18 18 18 18 18 18
Wind_Speed
11 12 12 11 11 11 11 12 13 13 13 13 13 13 14 14 14 14 14 14 13 13 13 12 12 13 14 14 15 15 16 17 17 18 17 16 16 15 14 14 15 16 16
15 13 12 11 12 11 11 12 12 13 12 12 13 12 12 13 13 13 13 12 12 12 12 12 12 12 13 13 13 14 14 15 16 17 16 15 14 13 12 13 14 14 16
16 15 14 13 13 12 12 11 12 12 12 12 12 12 11 12 12 12 12 12 11 12 12 11 12 12 13 13 13 13 13 13 14 15 14 14 13 13 14 16 16 15 15
17 16 15 14 13 13 12 12 12 12 11 12 12 11 11 11 11 11 11 11 11 11 11 11 11 12 12 12 12 12 11 11 12 12 10 11 12 13 14 14 14 14 14
17 18 17 15 14 13 12 12 11 11 11 11 11 11 10 10 10 10 10 10 10 11 11 11 11 12 12 12 11 10 8 8 8 7 10 13 13 13 13 13 13 13 12
18 19 17 15 14 13 12 11 11 11 11 10 10 10 10 10 10 10 10 10 10 10 11 11 11 12 12 11 9 7 5 4 5 7 12 14 13 12 12 12 12 12 11
18 19 17 15 14 13 12 11 11 11 10 10 10 9 9 9 10 10 10 10 9 10 10 11 11 11 11 10 8 5 3 3 3 8 12 14 13 13 12 11 11 11 11
17 18 17 15 14 13 12 11 11 10 10 10 9 9 9 9 10 10 10 10 9 9 10 10 10 10 10 8 6 4 3 4 3 9 12 14 14 13 11 11 10 10 10
17 16 15 15 14 13 12 11 10 9 9 9 9 9 9 10 10 10 10 10 9 9 9 9 9 9 8 7 5 4 4 4 2 7 12 14 14 13 11 10 10 9 9
13 14 14 15 14 13 12 11 10 10 9 8 8 8 9 9 10 10 10 10 10 9 8 9 8 8 8 6 5 4 4 5 4 7 12 14 15 13 11 10 9 9 9
10 10 11 12 12 13 13 13 11 10 9 8 8 9 9 9 10 10 11 11 10 9 8 8 8 8 8 7 6 5 5 4 4 8 12 16 15 12 11 10 9 9 9
9 9 8 9 9 10 11 12 11 10 10 9 8 10 9 8 9 11 12 11 9 8 8 8 8 8 8 7 8 7 6 5 6 9 13 17 14 12 11 10 9 10 9
9 8 8 7 6 6 7 9 7 7 9 8 7 7 8 7 9 11 10 9 9 9 8 8 8 8 8 6 7 8 6 4 5 9 14 16 14 13 11 10 10 10 10
10 8 8 7 5 4 4 4 5 5 6 6 8 7 6 3 4 7 7 9 8 7 6 6 6 7 7 6 6 5 4 3 5 10 14 16 15 13 12 11 10 10 10
9 8 8 8 6 4 3 1 2 3 4 7 8 6 6 4 3 4 4 6 6 7 7 5 5 4 3 5 5 5 3 3 5 8 12 15 15 14 13 12 11 10 10
8 8 8 8 7 5 3 1 1 1 3 4 7 8 5 4 4 3 3 3 4 5 5 6 5 4 3 3 3 3 3 3 5 8 11 14 15 15 14 13 12 12 11
8 8 8 8 8 6 5 4 3 3 4 2 5 7 6 4 5 4 3 3 4 6 6 5 4 4 3 4 4 3 3 4 5 7 10 12 13 15 15 15 14 14 13
9 9 8 8 9 7 5 4 3 2 2 3 4 5 6 5 5 3 2 3 4 5 5 3 3 3 3 3 3 4 3 3 4 6 8 10 12 13 16 17 16 16 15
9 9 7 5 8 8 7 4 3 1 0 1 2 3 6 6 6 4 2 2 4 3 3 4 3 3 3 3 3 4 3 4 4 6 6 8 11 12 14 17 19 18 17
9 9 8 6 6 6 6 4 3 2 2 2 3 4 5 6 6 5 4 4 4 2 2 2 2 2 2 3 4 3 3 4 4 5 6 7 9 12 13 15 16 16 19
10 9 8 8 7 6 5 5 4 4 4 4 4 5 6 6 6 5 3 2 3 2 2 3 3 3 3 3 2 2 3 5 6 5 5 4 6 9 11 13 14 14 14
11 9 9 8 8 7 5 4 4 3 3 4 3 4 6 6 5 6 4 3 3 2 3 3 3 2 3 4 3 2 2 3 3 6 5 6 6 6 7 11 13 13 12
12 11 10 9 8 8 7 5 4 3 1 1 2 3 4 6 6 5 5 3 3 3 4 4 4 5 4 4 4 3 2 2 2 2 4 5 5 5 4 6 10 13 14
12 11 9 9 8 8 7 6 6 5 4 4 3 3 3 5 5 6 5 4 4 3 4 5 5 4 4 4 3 4 4 2 2 2 3 4 4 5 5 5 6 9 12
12 12 10 9 8 7 7 6 5 4 4 3 3 3 3 3 4 5 5 4 4 3 4 4 3 5 4 4 3 3 4 4 5 4 3 3 3 3 5 5 5 6 9
11 11 11 10 8 8 7 6 6 5 4 3 3 3 3 3 4 4 5 3 4 4 4 4 4 5 5 5 4 4 4 3 4 4 4 4 3 3 4 4 4 4 7
Wind_Direction
110 107 104 102 99 95 98 96 96 97 97 96 93 92 93 94 94 95 96 98 101 103 107 106 104 103 101 100 99 101 101 102 103 103 103 103 103 104 105 107 105 101 104
115 114 111 108 105 104 102 99 100 100 100 99 98 97 96 97 97 98 99 99 102 105 108 109 110 109 107 107 108 109 109 111 112 112 110 106 104 103 101 97 101 108 110
118 120 115 109 107 106 104 102 102 102 102 102 101 100 99 100 101 101 100 100 103 106 110 112 113 114 111 110 114 117 118 121 123 124 121 112 106 102 98 99 105 110 110
123 122 114 110 107 106 106 104 104 103 103 103 103 103 102 101 101 103 102 102 104 107 111 114 116 118 117 114 117 122 128 134 138 138 127 119 113 108 108 109 111 110 110
114 111 112 113 110 108 108 108 106 105 103 103 103 102 103 104 104 104 104 104 105 109 111 115 118 119 119 119 122 128 137 148 156 140 110 105 107 117 116 115 115 113 111
120 116 117 117 114 112 111 109 106 107 107 105 106 107 108 109 109 109 106 106 108 111 114 116 118 119 121 126 132 141 154 175 173 142 127 121 119 122 121 121 118 116 116
118 118 122 122 118 117 115 112 110 109 111 112 114 113 112 113 113 113 110 109 110 114 118 119 120 122 126 132 140 153 183 236 190 136 125 120 124 128 125 124 122 119 118
119 118 125 127 126 124 121 118 115 114 114 115 118 121 121 119 118 118 116 116 116 118 122 123 124 127 129 137 152 173 211 264 159 127 118 119 128 128 128 128 127 128 125
123 129 136 137 134 131 129 126 122 120 119 121 124 129 129 128 126 126 124 123 123 122 125 127 128 132 139 147 166 191 230 269 204 131 122 123 132 131 132 134 136 135 133
126 134 142 144 144 147 140 137 134 134 132 134 138 142 141 138 136 138 133 129 129 130 131 133 134 139 146 159 183 216 245 270 189 120 116 130 137 136 138 141 144 145 143
127 134 142 142 151 153 148 146 151 150 152 157 160 162 163 163 151 149 135 137 138 141 142 143 146 150 160 178 201 219 244 247 140 110 118 138 143 142 144 146 149 152 150
137 132 137 142 149 152 144 147 161 165 164 188 173 174 183 178 152 138 141 146 150 155 157 160 164 170 183 187 200 215 232 216 146 129 134 145 148 148 149 152 155 157 156
146 144 140 134 131 128 131 153 161 157 161 180 167 165 170 153 143 142 152 158 168 174 179 167 179 194 202 198 190 208 221 215 150 130 143 151 153 155 157 160 161 164 165
144 146 134 121 104 81 89 123 148 158 164 155 155 180 156 155 166 151 159 165 173 177 175 179 194 203 202 195 199 215 208 190 144 127 150 158 161 165 167 170 173 175 177
144 144 124 116 104 91 65 7 150 151 154 151 159 174 162 164 157 147 151 158 174 172 170 184 199 197 192 200 204 207 201 160 153 149 154 167 170 174 178 180 184 187 189
149 145 137 136 133 135 148 233 336 173 136 161 160 158 169 158 143 148 147 161 179 182 179 184 189 183 200 205 203 206 197 186 173 156 159 175 181 184 188 191 193 196 199
152 151 151 156 153 163 177 197 203 216 163 169 142 150 164 167 158 157 162 176 195 186 179 190 195 182 200 207 196 202 198 200 184 172 173 178 185 193 197 198 200 202 205
154 157 177 176 159 166 186 201 226 232 141 150 157 159 163 175 171 172 179 190 184 189 186 187 208 193 204 208 194 204 197 191 188 192 193 191 187 192 200 204 204 205 208
153 157 172 171 160 171 181 188 225 211 122 171 157 160 170 184 189 191 195 185 200 198 197 209 182 198 203 211 215 204 203 196 193 209 208 204 195 192 191 200 206 208 211
156 160 167 176 168 173 177 180 209 208 192 203 202 181 180 195 199 199 206 198 210 197 203 215 177 195 222 224 245 214 218 213 198 208 209 210 202 198 196 192 198 211 214
164 166 171 180 176 181 187 187 192 201 207 204 207 189 191 206 200 199 237 168 200 208 212 215 202 206 220 231 244 252 248 236 212 207 207 211 203 206 200 186 190 198 206
170 171 173 180 181 188 190 190 193 199 215 208 208 184 199 206 204 207 204 209 197 201 221 230 221 222 231 221 214 230 252 254 247 227 203 209 216 202 201 198 196 197 201
174 178 184 182 182 186 186 189 192 176 202 225 205 196 208 211 217 224 200 212 208 209 209 215 222 220 229 241 226 214 225 237 258 257 227 217 206 201 210 208 200 200 202
178 178 175 176 181 179 183 195 197 191 200 207 199 204 212 218 223 221 214 210 217 234 212 219 221 226 230 241 244 236 238 223 225 270 258 238 220 214 215 224 217 201 202
177 174 173 170 175 176 184 192 194 206 206 198 185 198 208 216 221 224 218 205 209 231 231 235 233 230 232 237 241 244 246 240 227 229 253 253 246 233 222 212 215 204 200
172 169 168 166 172 175 187 194 194 204 203 203 197 194 207 216 214 219 222 202 206 223 231 234 237 238 241 246 251 249 241 234 234 227 239 244 239 239 229 217 213 198 201
Height
1529 1529 1531 1532 1533 1534 1535 1536 1537 1538 1539 1540 1541 1542 1543 1544 1545 1546 1548 1549 1550 1551 1553 1554 1555 1556 1557 1558 1560 1561 1561 1562 1564 1565 1566 1567 1568 1569 1570 1571 1571 1572 1573
1530 1531 1533 1534 1535 1536 1537 1538 1539 1541 1542 1543 1544 1545 1546 1547 1548 1549 1550 1551 1552 1553 1554 1556 1557 1558 1559 1560 1561 1562 1563 1564 1565 1566 1567 1569 1570 1571 1572 1572 1573 1574 1575
1531 1532 1534 1535 1537 1538 1539 1540 1541 1543 1544 1545 1546 1547 1548 1549 1550 1551 1552 1553 1554 1555 1556 1557 1558 1559 1561 1562 1563 1564 1565 1566 1567 1568 1569 1570 1571 1572 1573 1574 1575 1576 1577
1533 1534 1536 1537 1539 1540 1541 1542 1543 1544 1546 1547 1548 1549 1550 1551 1552 1553 1554 1555 1556 1557 1558 1559 1559 1561 1562 1563 1564 1566 1567 1568 1569 1570 1572 1573 1573 1574 1575 1576 1577 1578 1579
1535 1536 1537 1539 1540 1542 1543 1544 1545 1546 1547 1549 1550 1551 1552 1553 1554 1554 1555 1556 1557 1558 1559 1560 1561 1562 1563 1565 1566 1567 1569 1570 1571 1572 1573 1574 1575 1576 1576 1577 1578 1579 1580
1537 1538 1539 1540 1542 1543 1544 1545 1546 1548 1549 1550 1551 1552 1553 1554 1555 1556 1557 1558 1559 1559 1560 1561 1562 1563 1565 1566 1568 1569 1570 1571 1573 1574 1575 1576 1576 1577 1578 1579 1580 1581 1582
1539 1540 1541 1542 1543 1544 1546 1547 1548 1549 1550 1552 1553 1554 1555 1556 1557 1557 1558 1559 1560 1561 1562 1562 1564 1565 1566 1568 1569 1570 1571 1573 1574 1576 1576 1577 1578 1578 1579 1580 1581 1582 1583
1541 1541 1543 1544 1545 1546 1547 1548 1549 1550 1552 1553 1554 1555 1556 1557 1558 1559 1560 1560 1561 1562 1563 1564 1565 1566 1568 1569 1570 1571 1572 1573 1575 1577 1578 1578 1579 1580 1580 1581 1582 1583 1584
1542 1543 1544 1546 1547 1548 1549 1550 1551 1552 1553 1554 1555 1556 1558 1559 1559 1560 1561 1561 1562 1563 1564 1565 1566 1567 1569 1570 1571 1572 1573 1575 1576 1578 1578 1579 1580 1580 1581 1582 1583 1584 1585
1544 1545 1546 1547 1548 1549 1550 1551 1552 1553 1554 1556 1557 1558 1559 1560 1561 1561 1562 1563 1564 1565 1566 1567 1567 1569 1570 1571 1572 1573 1575 1576 1578 1579 1579 1580 1581 1581 1582 1582 1583 1584 1585
1546 1547 1549 1550 1550 1551 1552 1553 1554 1555 1556 1557 1558 1559 1560 1561 1562 1563 1564 1564 1565 1566 1567 1568 1569 1570 1571 1572 1573 1575 1576 1577 1578 1579 1579 1580 1581 1582 1582 1583 1584 1584 1585
1547 1549 1550 1551 1552 1553 1554 1554 1555 1556 1557 1558 1559 1561 1561 1562 1564 1565 1565 1566 1567 1567 1568 1569 1570 1571 1572 1573 1575 1576 1577 1578 1579 1579 1580 1581 1582 1582 1583 1583 1584 1584 1585
1547 1549 1551 1552 1553 1554 1555 1555 1556 1558 1558 1560 1561 1562 1563 1564 1565 1565 1566 1567 1568 1568 1569 1570 1571 1572 1573 1574 1575 1576 1577 1579 1579 1580 1580 1581 1582 1582 1583 1583 1584 1585 1586
1547 1549 1550 1552 1553 1554 1555 1556 1558 1559 1559 1560 1561 1562 1564 1565 1565 1566 1567 1567 1568 1569 1570 1571 1572 1573 1574 1575 1576 1577 1578 1579 1580 1580 1580 1581 1582 1582 1583 1583 1584 1585 1585
1547 1549 1550 1551 1552 1553 1554 1556 1558 1559 1560 1561 1562 1563 1564 1565 1566 1567 1567 1568 1569 1570 1571 1571 1572 1573 1574 1575 1576 1577 1578 1579 1579 1580 1580 1580 1581 1582 1582 1583 1583 1584 1585
1546 1548 1549 1550 1551 1552 1554 1555 1557 1559 1560 1561 1562 1562 1563 1565 1566 1567 1567 1568 1569 1570 1571 1572 1572 1573 1574 1575 1576 1577 1578 1579 1579 1579 1579 1580 1580 1581 1581 1582 1583 1583 1584
1545 1546 1548 1549 1550 1552 1553 1555 1557 1558 1559 1561 1562 1562 1563 1564 1565 1566 1567 1567 1568 1569 1570 1571 1572 1573 1574 1575 1575 1576 1577 1577 1578 1578 1578 1579 1579 1580 1580 1581 1582 1582 1583
1544 1545 1547 1549 1549 1551 1552 1554 1556 1558 1559 1560 1561 1562 1563 1564 1565 1565 1566 1567 1568 1569 1570 1571 1572 1572 1573 1574 1574 1575 1576 1576 1576 1577 1577 1577 1578 1578 1579 1580 1580 1581 1581
1542 1544 1545 1547 1548 1550 1551 1553 1554 1556 1558 1559 1560 1561 1562 1563 1564 1565 1565 1566 1567 1568 1569 1570 1570 1571 1572 1572 1573 1573 1574 1574 1575 1575 1576 1576 1576 1577 1577 1578 1578 1579 1580
1541 1542 1544 1545 1547 1548 1550 1551 1553 1555 1556 1557 1558 1560 1560 1561 1562 1563 1564 1565 1566 1567 1568 1568 1569 1569 1570 1571 1572 1572 1572 1573 1573 1573 1574 1574 1574 1575 1575 1575 1576 1577 1577
1540 1541 1542 1544 1545 1547 1548 1550 1551 1553 1554 1556 1557 1558 1558 1560 1561 1562 1563 1563 1564 1565 1566 1567 1567 1568 1568 1569 1570 1570 1570 1570 1570 1571 1571 1572 1573 1573 1573 1573 1574 1574 1574
1538 1539 1541 1542 1543 1545 1547 1549 1550 1552 1553 1554 1555 1556 1557 1558 1559 1560 1561 1562 1562 1563 1564 1565 1565 1566 1567 1568 1568 1568 1568 1569 1568 1568 1568 1569 1570 1570 1571 1571 1571 1571 1572
1536 1537 1539 1540 1542 1543 1545 1547 1549 1550 1551 1552 1553 1554 1554 1555 1557 1558 1559 1560 1561 1561 1562 1563 1563 1564 1565 1565 1566 1567 1567 1566 1566 1566 1566 1566 1567 1567 1567 1568 1568 1568 1569
1534 1536 1537 1538 1540 1542 1543 1545 1547 1548 1549 1550 1551 1552 1552 1553 1554 1555 1556 1557 1558 1559 1560 1560 1561 1562 1562 1563 1563 1564 1564 1564 1564 1563 1563 1563 1564 1564 1564 1565 1565 1565 1566
1532 1534 1535 1537 1538 1540 1542 1543 1545 1546 1547 1548 1549 1549 1550 1551 1552 1553 1554 1555 1555 1556 1557 1558 1558 1559 1559 1559 1560 1560 1560 1561 1561 1561 1560 1560 1561 1560 1561 1561 1562 1562 1562
1530 1532 1533 1535 1536 1538 1540 1541 1543 1544 1545 1546 1547 1547 1548 1548 1549 1550 1551 1552 1553 1553 1554 1555 1555 1555 1556 1556 1556 1556 1557 1557 1557 1558 1557 1557 1557 1557 1557 1557 1558 1558 1559